Regional Weather Roundup
Issued by NWS

Home | Current Version | Previous Version | Graphics & Text | Print | Product List | Glossary Off
Versions: 1 2 3 4 5 6 7 8 9 10 11 12 13 14 15 16 17 18 19 20 21 22 23 24 25 26 27 28 29 30 31 32 33 34 35 36 37 38 39 40 41 42 43 44 45 46 47 48 49 50

509
ASUS43 KFSD 221002
RWRSD

WEATHER ROUNDUP FOR SOUTH DAKOTA
NATIONAL WEATHER SERVICE SIOUX FALLS SD
500 AM CDT SUN APR 22 2018

NOTE: "FAIR" INDICATES FEW OR NO CLOUDS BELOW 12,000 FEET WITH NO
SIGNIFICANT WEATHER AND/OR OBSTRUCTIONS TO VISIBILITY.


SDZ001>005-009-010-012>017-221100-
NORTHWEST AND NORTH CENTRAL SOUTH DAKOTA

CITY           SKY/WX    TMP DP  RH WIND       PRES   REMARKS
BUFFALO          N/A     37  34  89 S6        30.06R
FAITH            N/A     36  35  96 S21       30.11F
MOBRIDGE       FAIR      35  32  88 SE7       30.17F WCI  29
$$

SDZ012>016-024>037-041>051-057-063-072>074-221100-
SOUTHWEST AND SOUTH CENTRAL SOUTH DAKOTA

CITY           SKY/WX    TMP DP  RH WIND       PRES   REMARKS
RAPID CTY ARPT FAIR      34  31  88 SE7       30.11R WCI  28
PIERRE         FAIR      33  32  96 SE6       30.21R WCI  28
CUSTER         FAIR      30  27  88 CALM      30.11S
ELLSWORTH AFB  FAIR     N/A N/A N/A S7        30.11R
PHILIP         FAIR      36  34  92 VRB3      30.17S
PINE RIDGE     FAIR      36  35  96 S9        30.14F
SPEARFISH      FAIR      37  32  81 CALM      30.10R
WINNER         PTSUNNY   39  33  79 S5        30.23R
$$

SDZ004>011-016>023-039-040-221100-
NORTHEAST SOUTH DAKOTA

CITY           SKY/WX    TMP DP  RH WIND       PRES   REMARKS
ABERDEEN       FAIR      29  28  96 SE6       30.26S WCI  23
WATERTOWN      CLEAR     34  28  79 CALM      30.26S
BROOKINGS      CLOUDY    32  29  88 CALM      30.28R
SISSETON         N/A     32  30  92 SE3       30.27S
$$

SDZ017-020-022-023-036>040-048>070-221100-
SOUTHEAST SOUTH DAKOTA

CITY           SKY/WX    TMP DP  RH WIND       PRES   REMARKS
SIOUX FALLS    CLOUDY    38  34  85 E3        30.27R
HURON            N/A     37  33  85 SE5       30.26R
CHAMBERLAIN    FAIR      36  36 100 S3        30.24S FOG
MITCHELL       CLOUDY    38  36  92 E5        30.27R
YANKTON        CLEAR     39  35  86 N6        30.26S
$$

ABBREVIATIONS USED IN REMARKS
   TC - TEMPERATURE IN CELSIUS
  WCI - WIND CHILL INDEX
   HX - HEAT INDEX
  VSB - VISIBILITY





USA.gov is the U.S. government's official web portal to all federal, state and local government web resources and services.